Weather History for La Porte, IN

Change the Weather History Date:

Wednesday, February 13, 2013

  Actual Average (KVPZ) Record (KVPZ)
Temperature  
Mean Temperature 30 °F 27 °F  
Max Temperature 43 °F 35 °F 47 °F (2005)
Min Temperature 18 °F 19 °F -2 °F (2014)
Degree Days  
Heating Degree Days 34 38  
Month to date heating degree days 514  
Since 1 July heating degree days 4199  
Cooling Degree Days 0 0  
Month to date cooling degree days 0  
Year to date cooling degree days 0  
Moisture  
Dew Point 26 °F    
Average Humidity 83    
Maximum Humidity 97    
Minimum Humidity 54    
Precipitation  
Precipitation 0.00 in 0.05 in 0.80 in (2005)
Month to date precipitation 0.64  
Year to date precipitation 2.39  
Sea Level Pressure  
Sea Level Pressure 29.80 in    
Wind  
Wind Speed 3 mph (SW)    
Max Wind Speed 15 mph    
Max Gust Speed 20 mph    
Visibility 7 miles    
Events      
T = Trace of Precipitation, MM = Missing Value Source: NWS Daily Summary

Daily Weather History Graph

Daily Weather History Graph

Search for Another Location

Airport:

Trip Planner

Search our weather history database for the weather conditions in past years. The results will help you decide how hot, cold, wet, or windy it might be!

Date:

Astronomy

Feb. 13, 2013 Rise Set
Actual Time 6:44 AM CST 5:18 PM CST
Civil Twilight 6:15 AM CST 5:46 PM CST
Nautical Twilight 5:43 AM CST 6:19 PM CST
Astronomical Twilight 5:11 AM CST 6:51 PM CST
Moon 8:09 AM CST (2/13) 9:24 PM CST (2/13)
Length of Visible Light 11h 30m
Length of Day
10h 33m
Waxing Crescent, 14% of the Moon is Illuminated
Feb 13
Waxing Crescent
Feb 17
First Quarter
Feb 25
Full
Mar 4
Last Quarter
Mar 11
New

Hourly Weather History & Observations

Time (CST) Temp. Windchill Dew Point Humidity Pressure Visibility Wind Dir Wind Speed Gust Speed Precip Events Conditions
12:15 AM 20.1 °F - 19.0 °F 96% 29.94 in 5.0 mi Calm Calm - N/A   Overcast
12:35 AM 20.5 °F - 19.6 °F 96% 29.93 in 5.0 mi Calm Calm - N/A   Overcast
12:55 AM 20.7 °F - 19.4 °F 95% 29.92 in 5.0 mi Calm Calm - N/A   Overcast
1:15 AM 20.7 °F - 19.4 °F 95% 29.91 in 4.0 mi Calm Calm - N/A   Overcast
1:35 AM 20.3 °F - 19.4 °F 96% 29.91 in 3.0 mi Calm Calm - N/A   Overcast
1:55 AM 19.9 °F - 19.0 °F 96% 29.91 in 4.0 mi Calm Calm - N/A   Overcast
2:15 AM 19.4 °F - 18.5 °F 96% 29.90 in 4.0 mi Calm Calm - N/A   Overcast
2:35 AM 18.5 °F - 17.6 °F 96% 29.90 in 4.0 mi Calm Calm - N/A   Overcast
2:55 AM 20.3 °F - 19.6 °F 97% 29.89 in 5.0 mi Calm Calm - N/A   Overcast
3:15 AM 21.9 °F - 21.2 °F 97% 29.89 in 5.0 mi Calm Calm - N/A   Overcast
3:35 AM 21.2 °F - 20.3 °F 96% 29.88 in 4.0 mi Calm Calm - N/A   Mostly Cloudy
3:55 AM 21.7 °F - 21.0 °F 97% 29.87 in 4.0 mi Calm Calm - N/A   Scattered Clouds
4:15 AM 19.2 °F - 18.3 °F 96% 29.87 in 4.0 mi Calm Calm - N/A   Scattered Clouds
4:35 AM 21.0 °F - 20.3 °F 97% 29.86 in 4.0 mi Calm Calm - N/A   Scattered Clouds
4:55 AM 19.9 °F - 19.2 °F 97% 29.86 in 3.0 mi Calm Calm - N/A   Mist
5:15 AM 20.1 °F - 19.4 °F 97% 29.84 in 3.0 mi Calm Calm - N/A   Overcast
5:35 AM 20.3 °F - 19.4 °F 96% 29.84 in 4.0 mi Calm Calm - N/A   Mostly Cloudy
5:55 AM 20.3 °F - 19.4 °F 96% 29.83 in 4.0 mi Calm Calm - N/A   Mostly Cloudy
6:15 AM 20.3 °F - 19.4 °F 96% 29.82 in 4.0 mi Calm Calm - N/A   Mostly Cloudy
6:35 AM 21.0 °F - 20.3 °F 97% 29.82 in 4.0 mi Calm Calm - N/A   Overcast
6:55 AM 21.2 °F - 20.3 °F 96% 29.82 in 5.0 mi Calm Calm - N/A   Scattered Clouds
7:15 AM 21.7 °F - 21.0 °F 97% 29.82 in 5.0 mi Calm Calm - N/A   Clear
7:35 AM 22.8 °F 18.2 °F 22.1 °F 97% 29.82 in 5.0 mi South 3.5 mph - N/A   Clear
7:55 AM 23.9 °F 18.0 °F 23.0 °F 96% 29.82 in 5.0 mi South 4.6 mph - N/A   Clear
8:15 AM 25.5 °F 21.3 °F 24.1 °F 94% 29.81 in 5.0 mi South 3.5 mph - N/A   Clear
8:35 AM 26.6 °F 21.2 °F 25.2 °F 94% 29.82 in 5.0 mi SSW 4.6 mph - N/A   Clear
8:55 AM 27.5 °F 19.3 °F 25.9 °F 94% 29.82 in 5.0 mi SSW 8.1 mph - N/A   Clear
9:15 AM 28.9 °F 21.9 °F 26.8 °F 92% 29.82 in 7.0 mi SSW 6.9 mph - N/A   Clear
9:35 AM 30.6 °F 23.8 °F 28.0 °F 90% 29.82 in 5.0 mi SSW 6.9 mph - N/A   Clear
9:55 AM 31.3 °F 23.9 °F 27.7 °F 87% 29.82 in 5.0 mi SSW 8.1 mph - N/A   Clear
10:15 AM 32.2 °F 25.0 °F 28.4 °F 86% 29.81 in 5.0 mi SSW 8.1 mph - N/A   Clear
10:35 AM 33.6 °F 26.2 °F 28.0 °F 80% 29.81 in 7.0 mi SSW 9.2 mph - N/A   Clear
10:55 AM 34.9 °F 27.7 °F 28.0 °F 76% 29.80 in 7.0 mi South 9.2 mph - N/A   Clear
11:15 AM 35.8 °F 27.3 °F 28.2 °F 74% 29.80 in 7.0 mi SSW 12.7 mph - N/A   Clear
11:35 AM 36.9 °F 29.1 °F 28.8 °F 72% 29.79 in 7.0 mi SSW 11.5 mph 16.1 mph N/A   Clear
11:55 AM 37.6 °F 30.0 °F 28.4 °F 69% 29.77 in 10.0 mi SW 11.5 mph - N/A   Clear
12:15 PM 38.5 °F 31.1 °F 29.5 °F 70% 29.76 in 7.0 mi SW 11.5 mph - N/A   Clear
12:35 PM 39.2 °F 32.0 °F 29.3 °F 68% 29.76 in 10.0 mi SW 11.5 mph - N/A   Clear
12:55 PM 40.1 °F 34.7 °F 29.3 °F 65% 29.75 in 10.0 mi SSW 8.1 mph 16.1 mph N/A   Clear
1:15 PM 41.2 °F 35.5 °F 29.8 °F 64% 29.74 in 10.0 mi SW 9.2 mph - N/A   Clear
1:35 PM 41.5 °F 35.0 °F 29.5 °F 62% 29.74 in 10.0 mi SW 11.5 mph - N/A   Clear
1:55 PM 42.1 °F 36.1 °F 28.9 °F 60% 29.73 in 10.0 mi SSW 10.4 mph - N/A   Clear
2:15 PM 42.8 °F 36.6 °F 28.6 °F 57% 29.72 in 10.0 mi WSW 11.5 mph 16.1 mph N/A   Clear
2:35 PM 43.0 °F 36.0 °F 28.2 °F 56% 29.72 in 10.0 mi WSW 13.8 mph - N/A   Clear
2:55 PM 43.2 °F 35.9 °F 27.7 °F 54% 29.72 in 10.0 mi WSW 15.0 mph 19.6 mph N/A   Clear
3:15 PM 43.2 °F 37.0 °F 28.0 °F 55% 29.72 in 10.0 mi WSW 11.5 mph 18.4 mph N/A   Clear
3:35 PM 43.2 °F 37.0 °F 28.8 °F 57% 29.72 in 10.0 mi WSW 11.5 mph 16.1 mph N/A   Clear
3:55 PM 42.8 °F 35.8 °F 29.3 °F 59% 29.72 in 10.0 mi WSW 13.8 mph 18.4 mph N/A   Clear
4:15 PM 41.9 °F 35.0 °F 29.8 °F 62% 29.73 in 10.0 mi SW 12.7 mph - N/A   Clear
4:35 PM 41.0 °F 34.3 °F 30.2 °F 65% 29.73 in 10.0 mi SW 11.5 mph - N/A   Clear
4:55 PM 40.1 °F 34.7 °F 30.2 °F 68% 29.73 in 10.0 mi SW 8.1 mph - N/A   Clear
5:15 PM 38.3 °F 32.5 °F 30.0 °F 72% 29.74 in 10.0 mi SW 8.1 mph - N/A   Clear
5:35 PM 37.4 °F 32.8 °F 29.8 °F 74% 29.74 in 10.0 mi WSW 5.8 mph - N/A   Clear
5:55 PM 36.5 °F 31.8 °F 29.3 °F 75% 29.75 in 10.0 mi WSW 5.8 mph - N/A   Clear
6:15 PM 36.1 °F 31.4 °F 29.1 °F 76% 29.75 in 10.0 mi WSW 5.8 mph - N/A   Clear
6:35 PM 35.6 °F 31.7 °F 28.6 °F 76% 29.76 in 10.0 mi WSW 4.6 mph - N/A   Clear
6:55 PM 35.6 °F 30.7 °F 28.4 °F 75% 29.76 in 10.0 mi WSW 5.8 mph - N/A   Clear
7:15 PM 33.8 °F 29.6 °F 27.9 °F 79% 29.76 in 10.0 mi WSW 4.6 mph - N/A   Clear
7:35 PM 33.6 °F 28.4 °F 28.2 °F 81% 29.76 in 10.0 mi WSW 5.8 mph - N/A   Clear
7:55 PM 32.9 °F 28.5 °F 27.9 °F 82% 29.76 in 10.0 mi WSW 4.6 mph - N/A   Clear
8:15 PM 31.8 °F 27.3 °F 27.9 °F 85% 29.76 in 10.0 mi WSW 4.6 mph - N/A   Scattered Clouds
8:35 PM 31.8 °F 27.3 °F 27.5 °F 84% 29.77 in 10.0 mi WSW 4.6 mph - N/A   Scattered Clouds
8:55 PM 32.0 °F 27.5 °F 28.2 °F 86% 29.77 in 10.0 mi SW 4.6 mph - N/A   Scattered Clouds
9:15 PM 30.7 °F 24.9 °F 27.1 °F 86% 29.77 in 10.0 mi SW 5.8 mph - N/A   Scattered Clouds
9:35 PM 30.4 °F 25.6 °F 27.3 °F 88% 29.76 in 10.0 mi SSW 4.6 mph - N/A   Scattered Clouds
9:55 PM 27.5 °F - 25.0 °F 90% 29.77 in 7.0 mi Calm Calm - N/A   Scattered Clouds
10:15 PM 27.7 °F 22.4 °F 26.2 °F 94% 29.76 in 7.0 mi SSW 4.6 mph - N/A   Mostly Cloudy
10:35 PM 30.7 °F 26.0 °F 29.7 °F 96% 29.76 in 7.0 mi SSW 4.6 mph - N/A   Overcast
10:55 PM 32.4 °F 27.9 °F 30.2 °F 92% 29.76 in 7.0 mi SSW 4.6 mph - N/A   Overcast
11:15 PM 32.9 °F 29.8 °F 30.0 °F 89% 29.76 in 7.0 mi SSW 3.5 mph - N/A   Overcast
11:35 PM 32.0 °F 27.5 °F 30.0 °F 92% 29.76 in 7.0 mi SW 4.6 mph - N/A   Overcast
11:55 PM 32.7 °F 29.6 °F 30.6 °F 92% 29.76 in 7.0 mi SSW 3.5 mph - N/A   Overcast